Wind_Speed
33 33 34 36 38 38 36 35 33 32 32 32 32 33 34 36 37 39 41 42 44 46 47 49 50 51 52 53 53 53 53 53 53 53 54 54 53 54 55 56 56 55 52 47 43 42 43 46 49 51 54 58 62 64 66 68 67 66 64 63 64 66 68 70 73 79 85 86 86 87 87 86 83 81 80 77 73 70 67 64 63 62 60 59 61
32 34 35 36 35 34 34 33 32 32 32 33 33 35 36 37 38 40 42 44 45 47 49 50 51 52 54 54 55 55 54 53 53 54 54 55 55 54 54 56 58 60 60 56 49 44 42 43 44 47 49 53 57 61 65 67 68 68 67 65 64 65 67 68 71 76 82 86 86 87 88 87 84 83 81 79 75 71 69 67 65 63 61 59 60
33 34 34 34 33 33 33 33 34 34 34 34 35 37 38 39 41 42 43 45 46 48 50 51 52 54 55 56 57 57 56 55 54 54 54 54 54 53 52 52 53 55 59 60 57 50 45 43 42 43 45 48 52 56 61 65 67 69 69 67 66 65 66 68 70 73 79 84 86 87 89 88 86 84 82 80 75 71 69 68 66 64 62 60 61
33 33 34 34 34 34 35 35 36 36 36 37 38 39 40 41 42 44 45 46 47 49 50 52 53 54 56 57 58 59 59 58 57 55 55 54 54 54 52 51 51 51 53 56 58 55 50 46 44 42 42 44 48 52 55 60 65 68 70 70 68 66 66 67 69 71 75 81 85 87 89 89 87 86 84 80 76 72 70 69 68 66 64 62 62
32 33 33 34 35 36 37 37 38 38 39 39 40 41 41 43 44 45 46 47 48 49 51 52 54 55 56 58 60 61 61 61 60 58 57 56 56 56 55 53 51 50 49 50 53 54 52 47 45 44 43 43 44 48 52 55 61 65 69 71 70 68 67 68 69 71 73 78 83 86 88 89 88 87 85 82 77 73 71 70 70 68 65 64 64
32 33 34 35 36 37 38 39 39 40 41 41 42 42 43 44 45 46 47 48 49 50 51 53 54 56 57 59 61 63 64 64 63 62 61 59 58 58 58 57 55 52 50 48 48 49 50 48 45 43 43 43 43 45 48 52 56 61 66 70 71 70 69 68 69 71 72 75 80 84 86 88 88 87 86 84 79 75 73 72 71 69 67 66 65
34 35 36 37 38 39 40 40 41 41 42 43 44 45 45 46 46 47 48 49 50 51 52 54 56 57 58 60 62 64 65 66 66 65 64 63 61 60 59 59 58 56 53 51 48 46 46 46 44 42 41 43 43 43 45 49 52 57 62 67 70 71 70 69 69 71 72 74 77 81 84 86 88 88 87 85 82 78 76 74 73 71 69 68 67
36 37 38 39 40 41 42 43 43 44 44 45 46 47 48 48 49 49 50 50 51 52 53 55 57 59 60 61 63 64 66 67 68 67 67 66 64 62 61 60 59 58 57 54 52 48 45 44 42 41 40 40 42 43 43 45 49 53 57 62 67 69 70 69 69 70 72 74 75 78 81 84 86 88 88 86 83 80 78 77 76 74 72 70 68
39 40 41 42 43 44 44 45 46 46 47 47 48 49 50 50 51 51 52 52 52 53 54 56 58 60 62 63 64 66 67 69 70 70 70 69 68 66 64 62 60 59 58 57 55 52 48 44 41 40 39 39 40 42 42 43 46 50 54 58 62 66 68 68 69 69 71 73 75 76 79 82 85 87 89 87 84 82 81 80 79 77 75 73 69
41 43 44 44 45 46 46 47 48 49 49 49 50 50 52 53 53 54 54 55 55 55 56 58 59 61 63 65 66 67 69 70 72 72 72 73 72 71 69 66 63 61 59 58 57 55 52 48 43 39 38 38 38 40 42 42 44 47 51 54 58 62 65 66 67 67 69 71 74 76 77 80 83 85 88 89 87 85 84 82 81 79 78 74 69
43 45 46 46 47 48 48 49 50 51 51 52 52 52 53 54 55 56 57 58 58 58 59 60 61 63 64 67 69 70 71 73 74 75 75 75 75 74 73 70 67 64 60 58 57 56 54 51 47 41 37 36 37 38 41 42 43 45 48 51 54 57 61 63 65 65 66 68 72 75 76 78 81 83 86 89 89 87 86 85 82 81 80 76 70
44 45 46 48 49 50 51 51 52 53 53 54 54 54 55 55 56 57 58 60 60 61 61 61 62 63 65 68 71 73 74 75 77 78 78 78 77 76 74 72 70 67 63 59 57 57 56 54 50 45 39 36 35 37 39 41 42 44 46 49 51 54 57 60 62 63 64 65 69 72 75 77 79 81 84 89 90 89 89 87 85 82 80 77 72
44 46 47 49 51 52 53 54 54 55 56 56 57 57 57 57 58 59 60 61 62 63 64 65 66 67 68 69 72 75 77 78 79 80 80 80 79 78 76 74 71 69 65 61 57 56 56 55 53 48 43 37 34 35 37 40 42 43 44 47 49 52 54 57 59 60 61 63 66 69 73 75 77 80 82 86 90 92 91 89 86 83 80 78 75
46 47 48 50 51 53 55 56 57 58 59 60 60 61 61 61 61 61 62 64 65 66 67 68 69 70 71 72 73 76 78 79 80 81 82 82 81 80 78 76 73 70 67 62 58 55 55 55 54 51 46 41 36 34 35 38 41 42 43 45 48 50 52 54 56 58 59 61 63 67 71 73 76 79 81 83 88 92 93 91 88 85 82 80 78
47 48 49 51 53 55 57 58 60 61 63 64 65 65 65 65 65 65 65 66 67 68 68 69 70 71 72 73 74 76 78 79 81 82 83 83 82 81 79 77 75 72 68 64 59 55 53 53 53 52 49 44 39 35 34 36 39 42 42 44 46 49 51 52 54 55 57 59 62 66 70 72 74 78 80 80 84 90 94 95 91 87 85 84 82
47 48 50 52 54 57 59 61 63 65 66 68 69 69 69 69 69 68 68 68 69 69 69 70 71 72 73 73 74 76 78 80 81 82 83 83 83 82 80 78 75 73 70 66 60 56 53 51 51 51 49 46 41 37 35 35 37 40 41 43 45 48 50 51 51 54 56 59 61 65 68 70 72 76 78 78 81 87 93 96 95 90 88 87 84
48 50 52 54 56 58 61 63 65 67 69 71 72 72 73 73 72 72 71 71 71 71 71 71 72 73 74 75 76 77 78 80 82 82 83 84 83 83 81 78 76 74 71 68 63 58 54 51 50 50 49 47 43 39 36 35 36 38 41 42 43 46 48 49 50 53 56 58 61 64 67 69 70 73 76 77 79 83 88 94 97 93 90 88 86
49 51 53 55 57 59 62 64 67 69 71 73 74 75 76 76 76 75 74 74 73 73 73 72 73 75 75 76 77 78 79 81 82 83 84 84 84 83 81 79 77 75 72 69 64 60 55 52 50 49 48 46 44 41 38 36 35 36 39 41 42 44 46 48 50 53 55 57 60 63 66 68 69 72 75 76 78 81 85 91 98 98 94 91 88
50 52 54 56 59 61 63 66 68 70 72 74 75 77 77 77 77 77 77 76 75 75 74 74 75 76 76 77 78 79 80 81 83 84 84 84 84 83 82 80 77 75 73 70 66 61 57 54 52 50 47 45 44 41 38 37 36 35 37 40 42 42 44 47 49 52 55 57 60 63 66 68 69 70 73 75 77 80 83 90 97 100 97 92 90
51 53 55 58 60 62 64 67 69 72 73 75 77 78 79 79 79 79 79 78 77 76 76 75 75 76 77 78 79 80 81 82 84 85 85 85 85 84 83 80 77 75 74 71 67 63 59 56 53 51 49 45 43 41 39 37 37 35 35 38 41 42 43 46 49 51 54 57 59 62 65 68 69 70 72 74 75 79 83 89 96 100 99 95 91
52 54 56 58 60 63 65 67 70 73 75 77 79 80 81 81 80 80 80 80 79 78 77 77 77 78 78 79 80 81 82 83 84 86 86 86 85 84 83 81 77 75 73 72 68 63 59 56 54 53 50 47 43 41 39 37 37 36 35 36 40 41 41 44 48 51 54 56 58 61 65 68 69 70 72 73 74 77 82 88 94 99 100 96 93
53 55 57 59 61 63 66 68 71 74 76 79 81 82 83 82 82 82 81 81 80 79 78 78 78 79 79 80 81 82 83 84 85 87 87 87 87 85 84 81 78 75 73 71 69 65 60 55 53 53 52 49 44 41 39 37 36 36 35 35 38 41 41 43 46 50 53 56 58 61 65 68 69 70 71 72 74 76 81 86 92 97 100 98 96
54 55 57 59 62 65 67 70 72 75 78 80 82 83 83 83 83 83 82 81 80 80 80 80 79 79 80 81 82 83 84 85 86 87 88 87 87 86 84 82 79 75 73 71 68 64 60 55 53 52 52 50 46 42 39 37 36 36 36 35 36 40 41 42 45 49 52 56 58 61 64 67 69 69 71 72 73 75 79 85 90 95 99 101 99
55 56 58 61 63 66 68 70 73 76 78 81 83 84 84 84 84 84 83 82 81 80 81 81 81 81 81 81 82 84 85 86 87 88 88 88 88 87 85 82 79 75 72 70 67 64 60 56 53 52 52 51 49 44 39 37 36 35 35 35 35 38 40 42 44 48 52 55 58 60 63 66 68 69 71 72 73 75 78 83 88 94 99 103 102
56 57 60 62 64 67 69 71 74 77 79 82 84 85 85 85 85 84 84 83 82 82 82 82 82 82 82 83 84 85 86 86 87 87 88 88 88 87 85 82 79 75 72 69 68 64 60 55 53 52 51 51 50 45 40 37 36 35 35 35 35 37 40 41 43 47 51 54 58 60 62 65 67 69 71 72 73 75 78 83 88 93 100 104 104
57 59 61 63 65 67 69 72 75 77 80 83 85 86 86 86 85 85 84 83 83 83 84 84 84 85 85 86 86 86 87 88 88 88 88 88 87 85 83 81 79 76 72 69 68 65 60 55 53 52 51 51 50 47 41 38 36 35 34 34 34 36 39 41 43 46 50 54 57 60 62 64 67 69 71 72 73 75 78 82 87 93 100 105 106
58 60 62 64 66 68 70 72 75 78 81 84 87 87 87 87 86 86 85 84 84 85 86 86 86 87 87 87 88 88 89 89 89 88 87 86 85 83 82 81 80 77 73 70 67 64 60 56 53 51 50 50 50 47 42 38 36 34 34 34 34 35 38 40 42 45 49 53 56 59 61 63 66 69 70 72 74 76 79 82 87 93 100 105 107
60 61 63 65 67 69 71 74 77 80 83 86 88 88 88 87 87 86 86 86 86 86 86 87 88 88 89 89 89 89 89 89 89 88 86 86 85 83 82 81 79 76 73 69 65 62 59 56 54 52 50 50 49 47 43 39 36 34 33 33 33 34 37 39 41 44 48 52 55 58 60 63 65 68 70 72 74 76 78 82 86 93 100 104 106
62 63 64 66 68 70 73 76 79 82 85 88 89 89 89 88 88 87 88 88 89 89 89 89 90 90 90 91 91 89 88 88 88 88 88 86 85 84 82 81 79 74 69 65 62 59 57 55 54 52 50 49 48 46 42 38 35 34 33 32 33 34 36 38 40 43 48 52 55 57 60 62 64 67 69 71 73 75 78 81 86 92 99 103 106
63 64 65 67 69 72 75 78 81 84 87 89 90 90 90 90 89 89 89 90 91 93 93 93 93 93 91 91 91 90 89 89 88 88 87 85 84 83 81 80 78 74 66 60 57 55 53 53 54 52 49 48 47 44 41 38 35 33 32 32 32 33 35 37 39 42 46 51 54 56 58 60 63 65 68 70 72 74 77 80 85 91 98 103 105
64 65 66 68 71 74 77 80 83 86 89 90 90 89 89 89 89 90 90 91 93 94 95 95 95 95 93 91 90 90 90 89 88 86 85 83 82 81 80 79 77 74 67 59 54 52 50 50 52 51 48 47 46 43 39 37 34 32 32 31 32 33 34 36 38 41 45 50 53 55 58 59 62 65 67 69 71 73 76 79 84 90 96 101 104
65 66 67 70 73 75 78 82 85 88 90 90 90 89 88 87 87 88 90 91 92 93 94 94 95 94 94 93 91 89 88 88 87 85 83 82 80 80 79 78 76 74 69 63 57 52 48 47 49 49 46 45 44 41 38 35 33 32 31 31 31 32 33 35 37 40 44 48 52 55 57 59 61 64 66 69 71 73 75 79 85 90 95 100 103
66 67 69 71 74 77 81 84 87 89 90 90 90 89 88 87 87 87 88 89 90 91 92 92 92 92 91 91 90 89 88 88 87 85 83 81 80 79 78 78 76 74 70 65 61 56 50 46 46 46 45 43 42 39 36 34 32 31 31 30 30 31 32 34 36 38 42 46 51 54 56 58 59 62 65 68 70 73 76 80 85 89 94 98 100
67 69 71 73 76 80 83 87 89 90 91 91 90 90 89 89 89 88 88 88 88 89 89 89 89 88 87 87 88 88 88 88 87 85 84 82 80 79 77 76 75 73 70 66 62 58 52 47 45 44 43 41 40 38 35 33 32 31 30 30 29 30 31 33 35 37 40 45 49 53 55 57 58 60 63 66 69 72 75 78 83 86 89 93 96
69 71 73 76 79 83 86 89 90 91 91 91 91 91 91 91 91 91 90 89 88 87 86 85 85 85 85 85 86 87 87 87 87 86 85 83 82 79 77 75 73 72 69 65 62 58 53 48 45 42 41 40 38 36 34 32 31 31 30 29 29 29 30 32 34 36 39 43 48 52 55 56 58 60 62 65 68 71 73 77 81 84 86 88 91
71 73 75 78 82 86 88 90 91 91 91 91 91 92 92 92 92 92 92 91 89 87 85 84 84 85 85 86 86 87 87 87 87 86 86 84 81 79 75 72 71 70 68 64 61 56 52 48 45 42 39 38 37 35 33 31 30 30 30 29 28 28 29 31 34 36 38 42 46 51 54 56 58 59 61 63 66 69 72 75 79 81 83 85 88
72 75 77 81 84 88 90 91 91 92 92 92 92 93 93 94 94 93 92 91 90 88 86 85 84 84 84 85 85 85 85 85 85 85 85 84 81 78 75 72 69 67 65 62 58 53 49 47 44 41 38 37 36 33 32 31 30 29 29 28 28 27 28 31 33 35 37 40 44 49 53 55 57 59 60 62 65 68 71 74 77 79 81 82 85
74 77 80 83 87 89 90 91 91 92 93 93 93 94 94 94 95 94 93 92 91 89 88 87 86 85 84 83 83 83 82 82 82 82 82 81 79 77 75 72 68 65 62 59 54 50 47 45 44 40 38 37 35 32 31 30 29 29 29 28 27 27 28 30 32 34 36 39 43 47 51 55 57 58 60 61 64 66 70 72 75 76 78 79 81
77 79 82 85 89 90 91 91 91 92 93 94 94 95 95 96 96 95 95 93 92 90 89 89 88 87 86 84 82 81 79 78 78 77 76 75 74 73 71 69 66 62 59 55 52 48 45 44 42 40 37 36 34 32 30 30 29 29 28 27 27 27 28 29 31 33 35 38 41 45 50 54 57 58 59 61 62 65 68 71 73 74 75 76 77
78 81 84 87 90 91 91 91 92 93 94 95 96 96 97 97 97 97 95 94 92 91 90 90 89 89 87 85 83 81 79 78 77 75 73 72 70 70 68 66 63 60 56 53 49 46 44 43 41 38 36 34 32 31 30 29 28 28 27 27 27 27 27 28 30 32 34 37 40 44 48 52 55 58 59 60 61 64 66 69 70 71 72 73 74
80 83 86 89 91 92 92 92 93 94 95 97 97 98 98 98 98 97 96 94 92 91 91 91 90 90 88 87 85 84 82 80 78 76 74 72 70 68 67 64 61 57 54 51 47 45 43 41 40 37 35 33 31 30 29 28 28 27 26 26 27 27 27 28 29 31 33 36 39 42 46 50 54 57 59 60 61 63 65 67 68 69 70 70 72
81 84 88 90 92 93 93 93 94 95 97 99 99 100 99 99 99 97 96 93 92 91 91 91 90 90 89 88 87 86 84 83 80 78 75 73 70 68 65 62 59 55 52 49 46 43 40 39 38 36 33 31 29 29 28 28 27 26 25 26 26 27 27 28 29 30 32 35 38 41 44 48 52 55 58 59 61 62 64 65 66 67 68 69 71
83 86 89 91 93 94 94 94 95 97 99 100 101 101 100 100 99 98 96 94 92 91 91 90 90 89 88 87 87 86 85 83 80 78 75 72 69 66 63 59 56 53 51 48 44 41 38 37 36 34 31 29 28 27 27 27 26 25 25 25 26 27 27 27 28 30 31 34 36 39 42 45 49 54 57 59 60 62 63 64 65 65 66 68 70
85 88 91 93 95 96 96 96 97 99 101 102 102 102 101 101 100 98 96 94 93 92 91 90 90 89 88 87 86 85 83 81 78 76 73 71 67 64 60 57 54 52 49 46 43 39 37 35 34 32 29 27 26 26 25 25 25 25 24 24 25 26 26 27 28 29 31 33 35 38 40 43 47 52 55 58 60 61 62 63 64 65 65 67 69
87 90 93 95 96 97 97 96 98 100 102 103 103 103 102 101 100 98 96 94 93 92 91 90 90 89 88 87 85 84 81 79 76 74 72 69 65 61 58 55 52 50 47 44 41 38 35 33 33 31 28 26 26 25 24 24 24 24 23 23 24 25 26 27 28 29 30 32 34 37 39 42 46 49 53 56 59 61 62 63 64 64 65 66 67
89 92 94 96 97 98 97 97 98 101 103 104 103 103 102 101 100 98 96 94 93 92 91 90 90 89 88 87 85 83 80 78 75 73 70 67 63 59 56 53 51 48 45 42 39 36 34 33 32 30 27 26 26 25 23 23 23 22 22 22 23 24 25 26 27 29 30 31 33 35 38 41 44 47 51 54 57 60 62 63 64 64 64 65 67
91 93 96 97 98 98 98 98 99 102 104 104 104 103 103 101 100 98 96 94 93 93 92 91 89 89 88 86 85 82 79 77 74 72 69 65 61 58 55 53 50 47 44 41 38 35 33 32 32 30 27 26 25 24 23 22 22 21 21 21 22 23 24 26 27 28 29 30 32 34 36 39 42 45 48 52 55 58 61 63 64 65 65 66 67
92 94 96 98 99 99 98 98 100 103 104 105 104 103 102 101 99 97 96 95 94 93 92 91 89 88 87 86 83 81 78 76 73 71 67 64 61 58 56 53 50 46 43 40 38 35 33 32 31 30 28 26 25 24 22 21 21 21 21 21 22 23 24 25 27 28 29 30 31 33 35 38 41 43 46 49 53 56 59 62 64 65 66 67 68
93 95 97 98 99 99 99 99 101 103 105 104 104 103 102 101 99 97 96 95 95 94 92 91 89 88 86 84 82 80 78 75 73 70 67 64 60 58 55 53 50 46 43 40 38 35 33 32 32 31 29 26 25 24 22 21 21 21 21 21 22 22 23 24 26 28 29 29 31 32 34 36 39 41 44 47 51 54 57 60 63 65 66 68 69
94 96 98 99 100 100 99 99 101 104 105 104 103 103 102 101 99 97 96 96 95 94 92 91 89 88 85 83 80 78 76 74 71 68 65 63 60 58 55 52 49 46 43 40 38 36 34 32 32 31 29 27 26 24 23 22 21 21 21 21 22 23 23 24 25 27 28 29 30 32 33 35 37 39 42 45 48 51 54 57 60 63 66 68 69
95 97 99 100 100 99 98 99 102 104 105 104 103 103 102 100 99 97 96 96 95 93 92 91 89 87 84 82 80 77 75 73 70 67 64 62 60 57 54 51 49 46 43 40 38 36 34 33 32 31 30 28 26 25 24 23 22 22 22 21 22 23 24 24 25 27 28 29 30 31 32 34 36 38 40 43 46 49 52 55 58 61 64 66 69
Wind_Direction
328 332 338 342 343 343 341 340 339 339 339 339 339 339 340 341 343 344 346 347 348 350 351 351 352 352 351 351 350 349 347 345 342 338 335 333 331 330 327 325 322 319 315 311 305 297 288 280 274 268 262 257 254 252 251 251 251 251 249 245 242 240 239 238 236 235 237 238 236 236 237 236 236 237 237 237 237 237 238 237 238 239 240 240 240
335 340 344 344 342 340 338 337 337 336 336 337 337 338 339 341 342 344 346 348 349 349 350 350 351 351 351 351 350 350 348 347 345 342 339 336 333 331 328 325 323 320 317 315 312 306 297 288 279 272 266 260 255 251 249 248 248 249 248 246 243 241 239 238 237 235 235 237 237 236 236 236 235 235 237 237 236 236 237 236 236 237 238 239 239
342 344 342 340 338 337 336 335 334 334 334 335 336 337 338 340 342 344 346 347 348 349 348 349 349 350 350 350 349 349 348 347 346 345 342 338 335 331 327 324 321 318 316 314 312 310 304 296 287 278 270 264 259 253 249 247 246 246 247 246 244 242 240 238 237 235 234 235 237 235 235 236 235 234 235 235 235 235 235 235 234 235 236 237 237
345 341 338 336 335 334 333 333 333 333 333 333 334 336 338 339 341 343 344 346 347 347 347 347 347 348 348 348 348 347 347 346 346 345 343 340 336 332 329 325 322 319 317 314 312 310 307 301 294 285 275 267 261 256 251 247 244 244 244 245 244 242 240 238 237 236 234 234 236 236 235 235 235 234 234 234 233 233 234 234 234 234 235 235 236
345 341 338 337 335 335 334 333 333 332 332 332 333 335 337 339 340 341 342 343 344 345 345 345 345 346 346 346 346 346 346 345 345 344 343 341 339 335 332 328 325 322 319 316 313 310 308 304 298 290 282 272 263 258 253 248 244 242 242 243 243 242 240 238 237 236 235 233 234 236 235 234 235 234 234 233 232 231 232 234 234 234 234 235 235
347 345 342 341 340 339 338 337 336 335 334 334 335 336 337 338 339 340 340 341 342 343 344 344 344 344 344 345 346 346 345 345 344 344 343 342 340 338 335 332 329 326 324 321 317 313 310 306 301 293 286 278 268 260 254 250 245 242 240 240 242 242 240 238 236 236 235 234 233 235 235 234 234 233 233 232 231 229 229 231 233 233 234 235 234
350 348 346 345 344 343 342 341 339 338 337 337 337 337 337 338 338 338 339 339 340 341 342 343 343 343 343 344 345 345 344 344 343 343 343 342 341 339 337 335 332 330 328 326 323 318 314 309 304 297 289 281 274 265 256 251 247 243 241 239 240 241 240 237 236 234 235 234 233 234 235 234 233 233 232 232 230 228 227 229 231 232 234 234 234
350 349 348 347 346 345 344 342 341 340 340 339 339 339 338 338 338 338 338 338 338 339 340 342 342 342 342 343 343 344 344 343 343 343 342 342 341 340 339 337 335 333 331 329 327 324 319 314 309 302 294 284 277 270 261 253 248 244 241 239 239 240 239 238 236 233 233 233 233 232 234 234 233 232 232 231 229 227 226 226 228 230 231 232 232
349 349 349 348 347 346 344 343 342 341 341 340 340 339 339 338 338 337 337 336 337 338 339 341 342 342 342 342 342 342 343 343 342 342 342 341 341 340 339 338 337 335 333 331 329 327 324 319 314 307 299 289 280 273 266 257 250 245 242 240 239 239 239 238 236 234 232 232 232 232 232 233 233 232 231 231 229 227 225 225 226 227 228 229 230
349 349 349 348 347 346 345 344 343 342 341 341 340 340 339 338 338 337 336 336 336 338 339 340 341 342 342 341 341 341 342 342 342 342 342 341 341 340 340 339 338 337 335 333 331 329 327 323 318 312 304 295 284 276 269 261 253 246 242 240 239 238 238 237 236 234 232 230 230 231 231 232 232 231 230 230 229 227 226 225 225 226 227 227 228
348 348 348 347 347 346 346 344 343 342 341 341 340 340 339 338 337 337 336 336 337 338 339 340 341 341 342 341 341 340 341 342 342 342 341 341 340 340 339 339 338 337 336 334 332 330 328 325 321 316 309 300 290 279 271 265 257 250 244 241 239 238 237 237 236 234 231 229 229 230 230 230 231 230 229 229 229 228 226 225 224 225 227 226 226
347 347 347 347 347 346 346 345 344 343 342 341 341 340 339 338 337 337 336 337 337 337 337 338 339 340 341 341 341 341 341 342 342 341 340 340 339 339 338 338 337 337 336 335 333 330 328 326 323 319 313 304 295 285 275 268 261 253 247 242 239 237 237 236 235 233 230 228 227 228 229 229 230 230 228 228 228 227 227 225 223 223 225 225 225
346 346 346 346 346 346 345 345 345 344 344 343 342 341 340 339 338 337 337 336 336 336 336 337 338 339 340 341 341 341 340 341 341 340 339 339 338 338 337 337 337 336 335 335 333 330 328 326 324 321 316 309 299 289 280 272 264 257 250 244 240 237 236 235 234 233 230 227 226 226 227 228 229 229 228 227 226 226 227 226 224 223 223 224 224
345 345 345 345 345 345 345 345 345 345 345 344 343 342 341 340 339 339 338 337 336 336 336 337 337 338 339 340 341 340 339 339 339 339 338 337 337 336 336 336 336 335 334 334 333 330 328 326 324 322 319 313 304 294 284 275 268 260 253 246 241 238 236 234 233 232 229 226 224 224 225 226 227 228 228 226 225 225 226 227 225 223 222 223 223
343 343 344 344 344 344 344 345 345 345 345 345 344 343 343 342 341 340 339 338 337 336 336 336 337 337 337 338 339 339 338 338 338 337 336 336 335 335 335 335 335 334 333 333 332 330 327 325 323 321 319 315 308 299 289 279 271 264 256 249 243 239 236 234 232 230 228 225 223 222 224 224 225 227 228 226 224 223 224 225 225 223 222 222 222
340 341 342 342 343 343 343 344 344 345 345 345 344 343 343 342 342 341 340 338 337 336 336 336 336 336 336 337 337 337 337 336 336 335 335 334 333 333 333 333 334 333 333 332 331 329 326 324 322 321 319 316 310 302 293 283 274 267 260 252 245 240 236 234 232 230 227 224 221 221 222 222 223 225 227 226 224 222 222 224 225 223 222 223 223
339 340 340 341 341 341 342 343 343 344 344 344 343 343 342 342 342 341 341 339 337 336 335 335 335 335 336 336 336 336 335 335 334 333 333 332 331 331 332 332 333 333 332 331 330 329 326 323 322 320 318 315 311 305 296 287 277 270 264 256 247 242 237 233 231 229 227 223 221 220 220 221 221 223 225 225 223 222 220 221 224 224 223 223 224
338 338 339 339 339 340 341 342 342 343 343 343 343 342 341 341 341 341 340 339 337 335 335 335 335 335 335 335 334 334 334 333 332 332 331 330 330 330 330 331 332 332 331 330 330 329 326 323 321 319 317 315 311 306 298 290 281 272 266 259 251 243 238 233 229 228 227 223 220 219 219 220 220 221 224 224 222 221 219 219 221 223 223 222 223
337 337 337 338 338 339 339 340 341 342 342 342 342 341 341 340 340 340 339 338 337 335 335 335 335 335 334 334 333 333 333 332 330 330 329 329 328 328 329 330 331 331 331 330 329 328 326 323 320 318 317 314 311 306 300 292 284 274 267 261 254 245 238 234 229 227 226 223 220 218 218 219 219 219 221 222 221 220 218 217 219 222 222 222 223
336 337 337 337 337 338 338 339 340 341 341 341 340 340 340 340 339 339 338 337 336 335 334 334 334 334 333 333 332 331 331 330 329 328 327 327 327 327 328 329 330 331 330 329 329 328 326 324 320 317 316 314 311 307 301 293 285 277 268 262 257 249 239 234 230 227 225 223 220 218 218 218 218 218 219 221 220 219 218 216 217 220 222 221 222
336 337 337 336 336 336 337 338 339 339 339 339 339 339 339 339 338 337 336 335 335 334 333 334 334 333 332 332 331 330 329 328 327 326 326 326 326 327 328 328 329 330 329 328 328 327 326 323 320 317 315 314 311 307 301 294 286 279 270 261 257 251 241 234 230 227 225 223 220 218 218 218 218 217 218 219 219 217 217 216 216 218 220 221 221
336 336 336 335 335 336 337 338 338 338 338 339 339 339 338 338 337 336 335 334 333 333 333 333 333 332 331 331 329 328 327 326 325 325 325 325 325 326 327 328 328 329 329 327 327 326 325 323 320 316 314 313 311 307 302 295 286 279 272 263 256 252 244 235 230 227 225 223 220 218 217 218 218 217 216 217 218 216 216 216 215 216 219 220 220
335 335 334 334 335 336 337 337 337 337 338 338 338 337 337 336 335 334 333 333 332 332 332 332 332 331 330 329 328 327 326 325 324 324 324 324 325 325 326 327 327 328 328 327 326 325 324 322 319 316 313 312 310 307 302 295 287 279 273 264 256 252 246 237 230 227 225 223 221 218 217 217 217 216 216 216 216 215 215 215 215 215 217 219 220
334 334 334 334 335 336 336 336 336 336 337 336 336 336 336 335 334 333 332 331 331 331 331 331 330 330 329 327 326 325 325 324 323 323 323 324 324 325 326 326 326 327 327 326 326 325 323 322 319 315 313 311 309 307 302 295 288 280 273 266 258 251 247 239 231 226 224 223 221 219 217 217 217 216 216 215 215 214 214 214 214 213 215 218 220
334 334 334 334 335 335 335 335 335 335 335 335 335 335 335 335 333 332 330 330 330 331 330 330 329 328 327 326 325 325 324 323 323 323 323 324 324 324 324 324 325 326 327 327 326 324 323 321 318 315 312 309 307 306 302 295 288 281 273 266 258 251 247 240 233 227 224 223 222 220 218 217 216 216 216 215 214 214 213 213 213 212 214 217 219
334 334 334 334 334 334 334 334 334 334 334 334 334 334 334 333 332 330 330 330 330 330 329 329 328 327 326 326 325 324 323 323 323 323 324 323 323 323 323 323 324 326 327 327 325 323 321 319 317 313 310 308 306 304 301 295 288 281 274 267 259 252 246 241 234 228 224 223 222 221 218 217 216 216 215 215 214 213 212 212 212 212 213 216 219
333 333 333 333 333 333 333 333 333 333 333 333 334 334 333 332 331 330 330 330 330 329 328 328 327 326 325 325 324 324 324 324 323 323 323 323 323 323 324 324 324 326 327 326 324 321 319 318 315 312 309 306 304 303 300 295 288 281 274 267 260 252 247 242 235 229 225 223 222 221 219 217 216 216 215 215 214 213 212 212 212 212 213 216 218
333 333 333 332 332 332 332 332 332 332 333 333 333 333 332 331 330 330 330 329 329 328 327 326 326 326 325 325 325 324 324 323 323 323 323 323 323 324 324 323 323 324 325 324 323 320 318 316 314 311 308 305 302 301 299 294 288 281 274 267 260 253 247 242 236 230 226 223 222 222 220 218 216 216 215 215 214 213 212 212 211 212 214 216 218
332 332 332 332 332 332 332 332 332 332 333 333 333 332 331 331 330 330 330 329 328 327 327 326 326 326 326 326 325 325 324 324 324 324 324 324 324 324 323 323 322 323 323 323 322 320 318 315 312 309 307 304 301 300 297 292 287 281 274 267 260 253 247 243 237 232 227 225 223 222 221 219 217 216 216 216 215 214 213 212 211 212 214 216 219
332 331 331 331 331 331 331 332 332 332 332 332 332 332 331 331 331 331 330 329 328 327 327 327 327 327 327 326 326 325 325 325 324 324 324 323 323 323 323 322 322 322 323 324 322 320 317 315 310 307 305 302 300 298 296 292 286 280 274 267 260 253 247 243 238 232 228 226 224 223 222 219 217 216 216 216 215 214 213 213 212 213 214 217 219
332 331 331 331 331 332 332 332 332 332 332 332 332 332 332 332 331 330 329 329 328 327 327 327 327 327 327 326 326 326 325 324 324 323 323 323 322 323 323 323 323 323 324 324 324 321 318 315 310 306 304 301 299 297 295 291 285 279 273 267 260 254 248 243 238 233 229 226 225 223 222 220 217 216 215 215 215 215 213 213 213 214 215 217 219
331 331 331 331 332 332 332 332 331 331 331 332 332 332 332 332 331 330 329 328 328 327 327 327 327 326 326 326 326 325 324 323 323 322 323 323 323 323 323 324 324 323 324 324 324 322 320 316 309 305 303 300 298 296 294 290 284 279 273 267 261 254 248 243 239 234 229 227 225 224 223 221 219 216 215 215 215 215 214 213 213 214 216 218 220
331 331 331 331 332 332 332 332 332 332 332 332 332 332 332 331 331 330 329 329 328 328 327 327 326 326 325 325 325 324 324 323 323 323 323 324 324 324 325 324 324 323 323 324 324 322 321 317 310 305 303 300 298 296 293 289 284 278 273 267 261 255 249 244 239 234 230 227 226 225 224 222 220 218 216 215 215 215 214 214 215 215 216 218 220
331 331 331 332 332 332 332 332 332 332 333 333 333 333 332 331 331 330 330 329 329 328 327 326 325 325 325 325 324 324 324 324 324 324 324 324 325 325 325 325 324 323 323 323 323 321 320 317 311 306 303 300 298 296 293 289 283 278 273 268 262 255 249 244 239 234 230 227 226 225 224 223 221 219 217 216 215 215 215 216 217 218 219 219 220
331 331 332 332 333 333 333 333 333 333 334 334 333 333 332 331 331 331 331 330 329 328 327 326 326 325 325 325 325 325 325 325 325 325 325 325 326 326 326 325 324 323 322 322 321 320 319 317 311 307 304 301 298 295 293 289 283 278 273 268 262 255 248 243 238 234 230 227 225 225 224 224 222 220 218 216 216 216 216 216 218 219 220 221 221
331 332 332 333 333 333 334 334 334 334 334 334 333 333 332 332 332 332 331 331 330 329 328 327 327 327 327 327 327 327 326 326 325 325 325 325 325 325 325 325 324 322 321 321 320 319 318 315 310 307 305 301 297 295 292 288 283 278 273 268 262 255 248 243 238 233 230 227 225 224 224 224 223 221 219 217 216 216 216 217 218 220 221 221 221
331 332 333 333 334 334 334 335 335 335 334 334 333 333 333 332 332 332 331 331 330 330 329 329 328 328 328 328 328 327 327 326 325 325 325 325 325 325 325 325 324 322 321 320 319 318 317 313 309 308 305 301 297 295 291 286 282 277 272 268 262 255 248 242 238 233 229 226 224 224 224 223 223 222 220 218 217 216 216 217 219 220 221 221 221
332 333 333 334 334 335 335 335 335 335 334 333 333 333 333 333 333 332 332 332 331 331 330 330 329 329 329 329 328 327 326 326 325 325 325 325 325 325 324 324 323 322 321 320 319 318 316 312 309 308 305 301 298 295 291 286 281 276 272 267 261 255 248 242 238 233 230 227 224 223 223 223 223 223 221 219 218 217 217 218 219 220 221 221 221
333 333 334 334 335 336 336 335 335 334 334 333 333 333 333 333 333 333 333 332 332 331 331 330 330 330 330 329 328 327 326 326 326 326 325 325 324 324 323 323 322 322 321 320 319 318 316 312 309 308 306 302 299 296 291 286 281 276 271 266 261 254 248 243 238 233 230 227 225 223 222 223 223 223 222 221 219 218 218 219 220 221 221 221 221
333 333 334 334 335 336 335 335 334 334 334 334 334 334 334 334 333 333 333 333 332 332 331 331 331 331 330 329 328 327 327 327 327 327 327 326 326 325 324 324 323 323 322 321 320 318 316 312 310 308 306 303 300 295 290 285 280 275 271 266 260 254 248 243 238 233 230 227 225 223 222 222 223 223 223 222 220 219 219 220 221 222 222 222 222
332 333 334 335 335 336 336 335 334 334 334 334 335 334 334 334 334 333 333 333 333 333 333 332 332 331 330 330 329 329 329 329 330 329 329 329 328 327 326 325 324 324 323 322 320 319 316 313 310 309 307 303 299 294 289 284 280 275 270 265 260 254 249 243 238 234 230 227 225 224 222 222 223 223 223 223 221 220 220 220 221 222 222 222 222
332 333 334 335 336 336 336 335 335 335 335 335 335 335 334 334 333 333 333 333 333 333 333 333 333 332 331 331 331 330 331 331 331 331 330 330 329 328 327 326 325 324 323 322 321 319 317 313 310 309 307 304 299 294 289 284 280 275 270 264 259 254 249 244 239 234 230 228 226 224 222 222 223 223 224 223 222 221 220 220 221 221 221 222 222
332 333 334 335 336 336 336 336 336 336 336 336 335 334 334 333 333 333 334 334 334 334 334 334 333 333 332 332 332 331 332 332 331 331 330 330 329 328 328 327 326 325 324 323 322 320 317 314 310 309 307 303 298 293 288 284 280 276 270 264 259 255 250 245 239 235 231 228 226 225 223 222 222 223 224 224 223 222 221 221 221 221 221 221 221
332 334 335 336 336 337 336 336 336 337 336 335 335 334 333 333 334 334 334 334 335 335 334 334 334 333 333 332 332 332 332 331 331 331 330 330 330 329 328 328 327 326 325 324 322 320 318 314 311 309 307 303 297 292 288 284 280 276 270 264 259 255 251 246 241 236 232 228 226 225 224 222 221 222 223 224 224 223 222 221 221 221 220 220 220
333 334 336 336 337 337 336 336 337 337 336 335 334 334 333 334 334 334 335 335 335 335 335 335 335 334 333 333 332 332 332 332 332 331 331 330 330 330 329 329 328 327 326 325 323 321 318 314 311 309 307 302 297 293 289 284 280 276 271 265 259 255 251 247 242 238 233 229 226 225 224 223 222 222 222 223 224 223 223 222 221 221 220 220 220
334 335 336 336 336 336 336 336 336 336 336 335 334 333 333 334 334 335 335 335 336 336 336 336 335 334 334 333 333 333 333 332 332 332 331 331 331 331 330 329 329 328 327 326 324 322 319 315 312 310 308 304 299 295 290 285 280 276 271 265 260 254 250 247 243 240 235 231 228 226 224 224 223 222 222 223 224 224 223 223 222 222 221 220 220
334 335 336 336 336 336 336 336 336 336 335 334 334 333 333 334 335 335 335 336 336 337 337 336 336 335 334 334 334 334 333 333 333 333 332 332 332 332 331 330 330 329 328 327 326 324 321 317 314 312 310 307 302 298 293 288 282 276 270 265 260 254 250 247 244 241 238 233 230 227 225 224 223 223 222 222 223 223 223 223 223 222 222 221 220
334 335 335 335 335 335 335 336 336 336 335 334 333 333 334 334 335 336 336 337 337 337 337 336 336 335 335 335 334 334 334 334 334 334 333 333 333 333 333 331 331 330 329 328 327 325 323 319 316 313 312 309 304 300 296 291 284 277 270 264 259 254 250 246 244 242 239 236 233 229 227 225 224 223 223 222 223 223 224 223 223 223 223 222 221
333 334 334 334 335 335 335 335 336 335 334 334 333 333 334 335 336 336 337 338 338 337 337 336 336 336 336 336 335 335 335 334 335 335 334 334 334 334 333 332 331 330 330 329 328 327 325 321 317 314 313 310 306 302 298 292 286 279 272 265 259 254 249 245 244 243 241 238 235 232 229 227 225 224 223 223 223 223 224 224 223 223 223 223 223
333 334 334 334 334 335 335 335 335 335 334 333 333 333 334 335 336 337 338 338 338 338 337 336 336 336 336 336 336 336 336 335 335 335 335 335 335 335 334 333 331 331 330 330 329 328 326 323 319 315 313 311 308 304 300 294 287 281 275 269 262 256 250 244 241 241 240 239 236 234 232 230 227 226 225 224 224 224 224 224 224 224 224 224 225
333 333 334 334 334 334 334 335 335 335 334 334 333 334 335 336 337 338 338 338 338 338 337 336 336 337 337 337 337 337 336 336 336 336 336 336 335 335 335 334 332 332 331 331 330 329 327 323 320 316 313 312 310 306 302 296 290 284 278 272 266 260 254 247 242 239 239 239 237 235 233 232 230 228 226 225 224 224 225 225 225 225 225 225 226
Height
10617 10613 10610 10606 10603 10599 10596 10592 10588 10584 10580 10576 10572 10567 10562 10558 10552 10547 10542 10536 10531 10525 10520 10515 10510 10504 10499 10493 10488 10483 10478 10472 10467 10461 10455 10451 10446 10442 10437 10432 10427 10424 10421 10420 10419 10418 10416 10414 10413 10413 10413 10413 10413 10414 10416 10418 10422 10426 10430 10434 10438 10441 10445 10448 10454 10455 10454 10458 10467 10471 10474 10481 10489 10494 10499 10506 10511 10516 10520 10525 10528 10531 10535 10539 10543
10615 10611 10608 10605 10602 10598 10595 10591 10587 10583 10579 10575 10570 10565 10560 10555 10549 10544 10538 10533 10527 10522 10516 10511 10506 10501 10496 10491 10485 10480 10476 10470 10464 10458 10452 10446 10441 10437 10432 10427 10421 10416 10411 10408 10407 10407 10405 10404 10402 10401 10401 10401 10400 10402 10404 10406 10409 10412 10416 10421 10425 10429 10433 10437 10441 10444 10444 10446 10453 10459 10462 10469 10478 10483 10488 10495 10501 10507 10512 10516 10520 10523 10527 10531 10534
10612 10609 10606 10604 10600 10597 10594 10590 10586 10582 10577 10573 10568 10562 10557 10551 10546 10540 10534 10529 10524 10518 10513 10508 10503 10497 10492 10487 10482 10477 10472 10467 10461 10455 10449 10444 10438 10433 10429 10424 10418 10412 10405 10400 10397 10395 10394 10393 10391 10391 10390 10389 10389 10390 10391 10393 10396 10399 10403 10407 10412 10416 10421 10425 10429 10433 10435 10435 10439 10446 10450 10456 10465 10472 10477 10484 10491 10498 10504 10508 10511 10515 10519 10523 10526
10611 10608 10605 10602 10599 10595 10591 10587 10583 10579 10574 10570 10565 10559 10554 10548 10542 10536 10531 10526 10521 10515 10510 10504 10499 10493 10488 10483 10477 10472 10467 10462 10456 10451 10446 10440 10434 10428 10423 10419 10413 10408 10402 10395 10389 10385 10384 10382 10380 10380 10379 10379 10378 10378 10380 10381 10383 10386 10390 10393 10398 10403 10407 10412 10417 10421 10424 10425 10426 10431 10438 10444 10452 10459 10466 10474 10482 10488 10494 10498 10502 10506 10510 10514 10517
10609 10607 10603 10600 10596 10592 10588 10584 10580 10576 10571 10567 10562 10556 10551 10545 10539 10534 10528 10523 10518 10513 10507 10501 10496 10490 10484 10478 10472 10467 10461 10456 10451 10446 10440 10434 10428 10422 10416 10412 10407 10402 10396 10390 10383 10378 10374 10372 10370 10369 10368 10368 10368 10368 10368 10370 10371 10374 10377 10380 10384 10389 10394 10399 10404 10408 10413 10416 10416 10418 10425 10433 10439 10447 10455 10463 10471 10478 10485 10490 10494 10497 10501 10505 10508
10608 10605 10601 10597 10593 10589 10585 10581 10577 10572 10568 10563 10558 10553 10547 10542 10536 10531 10525 10520 10514 10509 10504 10498 10492 10486 10480 10474 10468 10461 10455 10450 10445 10439 10434 10428 10422 10416 10410 10404 10399 10394 10389 10384 10378 10372 10367 10363 10361 10359 10357 10357 10357 10357 10358 10359 10360 10362 10365 10367 10371 10376 10381 10386 10391 10395 10400 10405 10407 10408 10413 10421 10428 10435 10443 10451 10459 10468 10474 10479 10484 10489 10493 10496 10499
10606 10603 10599 10594 10590 10586 10582 10578 10573 10569 10564 10559 10554 10549 10544 10539 10533 10528 10523 10517 10512 10506 10500 10494 10488 10482 10476 10470 10464 10457 10451 10445 10439 10433 10427 10422 10416 10410 10404 10397 10391 10386 10380 10376 10371 10366 10361 10356 10352 10350 10348 10347 10346 10347 10347 10348 10350 10351 10353 10356 10358 10363 10368 10373 10377 10382 10387 10393 10397 10399 10402 10408 10416 10424 10431 10439 10447 10456 10463 10470 10476 10481 10484 10487 10489
10604 10600 10596 10591 10587 10583 10578 10574 10570 10565 10561 10556 10550 10545 10540 10535 10530 10525 10519 10514 10509 10503 10496 10490 10484 10477 10471 10465 10459 10453 10447 10440 10433 10427 10420 10414 10409 10404 10398 10392 10385 10379 10373 10368 10362 10358 10353 10349 10345 10342 10339 10338 10337 10337 10337 10338 10339 10341 10342 10345 10347 10351 10355 10360 10364 10370 10375 10380 10386 10390 10393 10397 10404 10412 10418 10426 10436 10446 10454 10460 10465 10469 10472 10475 10479
10600 10596 10592 10588 10584 10580 10575 10571 10567 10562 10557 10552 10547 10542 10537 10532 10526 10521 10516 10510 10505 10499 10492 10486 10480 10473 10466 10460 10454 10448 10441 10434 10427 10421 10414 10407 10401 10395 10390 10385 10380 10374 10367 10361 10355 10350 10345 10342 10339 10335 10332 10329 10328 10327 10328 10328 10329 10330 10332 10334 10337 10340 10343 10348 10352 10357 10363 10368 10374 10379 10383 10386 10392 10399 10407 10415 10425 10434 10441 10446 10452 10457 10461 10466 10471
10596 10592 10588 10585 10581 10577 10573 10568 10563 10558 10554 10548 10543 10538 10533 10527 10522 10517 10511 10505 10499 10493 10487 10481 10474 10468 10462 10455 10448 10442 10435 10428 10420 10414 10407 10400 10393 10387 10381 10376 10372 10368 10362 10356 10349 10343 10338 10334 10331 10328 10325 10322 10320 10319 10318 10319 10319 10320 10322 10324 10326 10329 10332 10336 10340 10345 10351 10356 10362 10367 10372 10376 10380 10387 10396 10404 10412 10420 10428 10435 10443 10448 10452 10458 10465
10592 10588 10585 10582 10578 10574 10569 10565 10560 10555 10550 10544 10539 10534 10529 10523 10518 10512 10506 10500 10493 10487 10481 10475 10469 10463 10457 10449 10442 10435 10428 10421 10414 10407 10400 10394 10388 10381 10375 10369 10364 10360 10356 10351 10345 10338 10332 10327 10323 10321 10318 10315 10312 10310 10310 10310 10310 10311 10313 10314 10316 10319 10322 10325 10329 10333 10339 10345 10350 10356 10361 10366 10370 10376 10385 10391 10398 10408 10416 10423 10431 10438 10444 10452 10459
10590 10586 10582 10578 10574 10570 10565 10561 10556 10551 10546 10540 10535 10530 10524 10519 10514 10507 10501 10494 10487 10481 10475 10470 10463 10457 10451 10444 10435 10427 10420 10414 10407 10401 10394 10388 10382 10376 10370 10364 10357 10352 10348 10345 10340 10334 10327 10321 10316 10313 10311 10309 10306 10303 10301 10301 10301 10302 10303 10305 10307 10309 10312 10315 10318 10322 10328 10334 10340 10345 10351 10356 10360 10365 10373 10379 10386 10395 10402 10409 10419 10428 10436 10444 10451
10587 10583 10578 10574 10569 10565 10561 10556 10552 10547 10541 10535 10530 10525 10519 10514 10509 10502 10495 10489 10482 10475 10468 10461 10455 10449 10443 10436 10429 10420 10413 10407 10401 10395 10389 10382 10376 10370 10365 10358 10352 10346 10341 10338 10334 10329 10323 10316 10311 10306 10303 10301 10299 10296 10294 10292 10292 10293 10294 10295 10297 10299 10302 10305 10308 10312 10318 10324 10330 10335 10340 10345 10350 10354 10360 10367 10375 10383 10390 10399 10409 10419 10427 10435 10442
10583 10579 10574 10570 10566 10561 10557 10552 10547 10541 10536 10530 10524 10519 10513 10507 10501 10495 10488 10481 10474 10467 10460 10453 10446 10440 10434 10429 10423 10415 10408 10402 10396 10389 10383 10377 10371 10365 10359 10353 10346 10340 10335 10331 10327 10323 10318 10312 10306 10300 10296 10293 10292 10290 10287 10284 10283 10283 10285 10286 10288 10289 10292 10295 10299 10303 10308 10314 10320 10324 10328 10334 10340 10343 10347 10355 10364 10372 10381 10390 10398 10408 10417 10424 10430
10579 10575 10571 10566 10562 10557 10552 10547 10542 10536 10530 10524 10518 10512 10506 10500 10493 10488 10481 10474 10468 10461 10454 10448 10441 10434 10428 10423 10417 10411 10403 10397 10391 10385 10378 10372 10365 10359 10354 10347 10341 10334 10328 10324 10321 10317 10313 10308 10301 10295 10290 10287 10284 10282 10280 10277 10275 10275 10276 10277 10279 10280 10283 10286 10290 10295 10299 10303 10309 10313 10316 10322 10329 10332 10335 10345 10354 10362 10370 10377 10385 10395 10404 10410 10416
10576 10571 10567 10562 10557 10552 10547 10541 10536 10530 10524 10517 10511 10505 10499 10493 10487 10481 10475 10468 10462 10455 10448 10442 10435 10429 10423 10417 10411 10405 10398 10391 10386 10380 10373 10367 10360 10354 10348 10342 10336 10329 10322 10317 10313 10309 10306 10302 10296 10290 10285 10281 10277 10275 10273 10270 10268 10267 10267 10268 10270 10272 10274 10278 10282 10286 10289 10293 10298 10302 10306 10312 10319 10323 10326 10335 10344 10351 10359 10366 10373 10383 10393 10400 10407
10572 10567 10562 10557 10552 10547 10542 10536 10530 10524 10518 10512 10505 10499 10493 10486 10480 10474 10469 10462 10455 10449 10443 10437 10430 10423 10417 10410 10404 10399 10393 10385 10379 10373 10367 10361 10355 10348 10343 10337 10330 10323 10316 10310 10305 10301 10297 10294 10290 10285 10279 10274 10270 10267 10265 10263 10261 10259 10259 10260 10261 10263 10266 10270 10274 10276 10279 10283 10288 10292 10297 10302 10309 10313 10316 10324 10333 10340 10349 10358 10365 10374 10383 10390 10398
10567 10562 10558 10553 10548 10543 10537 10531 10526 10519 10513 10506 10500 10493 10487 10480 10474 10467 10462 10456 10450 10443 10437 10430 10423 10416 10410 10404 10398 10393 10387 10380 10373 10367 10361 10355 10349 10342 10336 10330 10324 10316 10310 10303 10298 10293 10289 10285 10282 10279 10274 10268 10264 10260 10258 10256 10254 10252 10251 10251 10252 10254 10258 10262 10264 10266 10270 10274 10278 10283 10287 10292 10298 10303 10307 10313 10322 10330 10340 10349 10355 10361 10370 10380 10388
10563 10559 10554 10548 10543 10538 10532 10526 10521 10514 10508 10502 10495 10489 10482 10475 10468 10462 10456 10451 10445 10438 10431 10425 10418 10411 10404 10399 10392 10386 10381 10374 10366 10360 10354 10348 10342 10336 10329 10324 10317 10310 10303 10296 10291 10285 10280 10276 10273 10270 10267 10263 10258 10254 10251 10249 10247 10245 10244 10244 10244 10246 10249 10253 10255 10257 10261 10265 10269 10274 10278 10282 10288 10293 10298 10303 10311 10320 10329 10337 10343 10349 10359 10370 10378
10560 10554 10549 10543 10538 10532 10527 10521 10515 10509 10504 10498 10491 10484 10477 10470 10463 10457 10451 10445 10439 10432 10426 10420 10414 10407 10400 10393 10386 10379 10374 10368 10360 10353 10347 10341 10334 10328 10322 10316 10311 10304 10296 10289 10284 10279 10273 10268 10264 10261 10258 10255 10252 10248 10244 10241 10239 10238 10237 10236 10236 10237 10241 10244 10247 10249 10252 10256 10260 10265 10268 10273 10278 10283 10288 10293 10300 10309 10318 10325 10333 10340 10349 10359 10368
10555 10550 10545 10539 10534 10528 10523 10517 10511 10505 10499 10492 10485 10478 10471 10465 10458 10452 10446 10440 10434 10427 10420 10414 10408 10401 10394 10388 10381 10374 10367 10361 10354 10346 10339 10333 10326 10320 10315 10309 10304 10298 10290 10282 10277 10272 10267 10262 10257 10253 10249 10247 10244 10241 10237 10235 10232 10230 10230 10229 10228 10229 10232 10235 10238 10241 10244 10247 10251 10256 10259 10263 10268 10273 10279 10284 10291 10299 10307 10315 10323 10331 10338 10349 10359
10551 10546 10541 10535 10530 10524 10518 10512 10506 10500 10493 10486 10479 10472 10466 10459 10452 10447 10441 10435 10429 10422 10414 10408 10402 10396 10389 10381 10374 10367 10360 10353 10346 10339 10332 10325 10318 10311 10306 10300 10295 10290 10284 10276 10270 10264 10260 10256 10250 10245 10241 10238 10236 10233 10231 10228 10225 10223 10222 10222 10221 10221 10223 10226 10230 10233 10235 10238 10242 10246 10250 10253 10259 10265 10270 10275 10281 10289 10297 10305 10314 10322 10330 10340 10349
10547 10542 10537 10531 10525 10519 10513 10507 10501 10494 10487 10481 10474 10468 10461 10454 10448 10441 10435 10430 10423 10416 10408 10402 10396 10390 10383 10375 10367 10360 10354 10346 10339 10331 10324 10317 10309 10303 10297 10291 10286 10282 10277 10270 10263 10257 10252 10248 10244 10238 10233 10230 10227 10225 10223 10220 10218 10216 10214 10214 10214 10214 10215 10218 10221 10224 10227 10230 10233 10237 10241 10245 10251 10257 10262 10267 10273 10280 10288 10297 10305 10314 10322 10329 10337
10543 10538 10532 10526 10520 10514 10508 10502 10496 10489 10483 10476 10470 10463 10457 10450 10442 10435 10428 10422 10416 10409 10402 10395 10389 10383 10377 10370 10362 10354 10347 10339 10331 10324 10316 10309 10301 10294 10288 10283 10278 10274 10268 10262 10255 10250 10245 10241 10236 10231 10226 10222 10219 10217 10215 10213 10211 10208 10207 10207 10207 10207 10207 10210 10213 10216 10219 10221 10224 10228 10232 10237 10242 10248 10253 10258 10264 10272 10280 10288 10297 10306 10313 10318 10325
10538 10532 10527 10521 10515 10509 10504 10497 10491 10485 10479 10472 10466 10458 10451 10444 10436 10429 10422 10416 10409 10402 10395 10388 10382 10375 10369 10363 10355 10347 10340 10332 10324 10317 10309 10301 10293 10287 10280 10274 10269 10265 10260 10253 10246 10241 10237 10233 10229 10224 10219 10214 10211 10208 10207 10205 10203 10201 10200 10199 10199 10199 10200 10202 10205 10208 10211 10213 10216 10220 10224 10228 10234 10239 10245 10250 10256 10263 10271 10278 10286 10295 10302 10307 10314
10533 10527 10522 10517 10511 10506 10500 10494 10487 10481 10475 10468 10460 10452 10444 10438 10431 10424 10416 10409 10401 10394 10387 10380 10374 10367 10359 10353 10346 10339 10331 10324 10316 10308 10301 10294 10287 10280 10273 10266 10260 10254 10250 10245 10238 10233 10229 10225 10221 10217 10212 10207 10203 10200 10199 10197 10196 10194 10192 10192 10192 10192 10192 10194 10197 10200 10203 10205 10208 10212 10216 10220 10225 10231 10236 10242 10248 10254 10261 10268 10276 10285 10292 10297 10303
10528 10523 10518 10513 10508 10502 10497 10491 10484 10477 10470 10462 10454 10446 10437 10430 10423 10416 10409 10401 10394 10386 10378 10371 10365 10359 10352 10345 10338 10330 10321 10313 10307 10300 10294 10287 10279 10272 10265 10257 10250 10245 10241 10236 10231 10225 10220 10217 10213 10209 10205 10200 10195 10193 10191 10189 10188 10186 10185 10185 10185 10185 10185 10186 10189 10192 10195 10198 10200 10203 10208 10212 10217 10222 10228 10234 10239 10245 10251 10259 10267 10275 10281 10287 10293
10524 10519 10514 10509 10504 10498 10492 10486 10480 10473 10465 10457 10449 10441 10433 10425 10416 10407 10399 10392 10386 10379 10372 10365 10358 10351 10344 10336 10330 10323 10314 10305 10297 10291 10285 10278 10269 10262 10256 10249 10242 10238 10233 10228 10222 10216 10212 10208 10204 10201 10197 10192 10188 10185 10183 10181 10180 10179 10178 10178 10178 10178 10178 10179 10181 10184 10187 10190 10193 10196 10200 10205 10209 10214 10220 10226 10231 10237 10243 10250 10258 10265 10271 10277 10283
10520 10516 10511 10505 10499 10493 10487 10481 10474 10467 10459 10451 10442 10434 10426 10418 10409 10399 10390 10381 10374 10368 10362 10356 10349 10342 10335 10326 10318 10313 10307 10299 10289 10280 10273 10266 10259 10252 10246 10240 10234 10230 10226 10221 10215 10208 10203 10199 10195 10192 10189 10184 10180 10177 10175 10173 10172 10171 10170 10170 10170 10170 10171 10172 10174 10177 10179 10182 10185 10189 10192 10197 10202 10207 10213 10218 10224 10230 10236 10242 10250 10256 10262 10268 10274
10517 10512 10507 10501 10495 10489 10482 10475 10468 10461 10453 10446 10437 10428 10418 10408 10399 10391 10382 10373 10364 10355 10348 10341 10334 10329 10324 10317 10308 10300 10293 10287 10280 10273 10265 10258 10251 10244 10238 10231 10224 10218 10216 10213 10208 10201 10195 10190 10185 10182 10180 10176 10171 10169 10167 10166 10165 10164 10163 10163 10163 10163 10164 10165 10167 10169 10172 10175 10178 10181 10185 10190 10195 10200 10205 10211 10216 10223 10229 10235 10242 10248 10253 10258 10265
10513 10508 10502 10497 10491 10484 10477 10470 10463 10455 10447 10440 10432 10424 10414 10404 10393 10384 10375 10366 10356 10346 10337 10329 10322 10314 10309 10305 10300 10291 10282 10275 10268 10263 10257 10250 10243 10236 10229 10222 10214 10207 10203 10201 10198 10193 10188 10182 10176 10173 10171 10167 10163 10161 10160 10158 10157 10156 10156 10155 10156 10156 10157 10158 10160 10162 10165 10168 10171 10174 10178 10182 10187 10191 10197 10202 10208 10214 10221 10228 10233 10239 10244 10249 10255
10509 10504 10498 10492 10485 10479 10472 10465 10457 10450 10442 10433 10425 10417 10409 10401 10392 10382 10372 10362 10352 10342 10333 10324 10315 10306 10298 10292 10288 10282 10275 10268 10260 10254 10248 10242 10235 10228 10220 10212 10205 10197 10192 10188 10185 10182 10178 10174 10168 10164 10162 10159 10155 10153 10152 10151 10149 10149 10148 10148 10149 10149 10150 10151 10153 10155 10158 10161 10164 10167 10170 10174 10179 10183 10188 10194 10200 10206 10212 10218 10223 10228 10234 10240 10246
10505 10499 10493 10486 10480 10473 10466 10459 10451 10443 10435 10426 10418 10409 10402 10395 10388 10380 10371 10360 10349 10338 10328 10319 10311 10303 10294 10285 10278 10271 10264 10257 10249 10243 10237 10231 10225 10219 10211 10203 10195 10188 10183 10179 10175 10171 10168 10165 10160 10156 10153 10150 10148 10146 10145 10143 10142 10141 10141 10141 10142 10142 10143 10145 10146 10149 10151 10154 10157 10160 10163 10167 10172 10176 10181 10186 10192 10198 10203 10208 10212 10217 10223 10229 10236
10500 10494 10488 10482 10475 10468 10460 10452 10444 10435 10426 10417 10409 10401 10394 10386 10379 10373 10366 10357 10347 10336 10326 10316 10307 10300 10292 10283 10273 10263 10254 10246 10238 10231 10225 10220 10214 10209 10203 10195 10186 10179 10173 10169 10166 10162 10158 10155 10151 10147 10145 10142 10140 10138 10137 10136 10135 10134 10134 10134 10135 10136 10137 10138 10140 10142 10145 10147 10150 10153 10157 10160 10165 10169 10174 10179 10184 10189 10195 10200 10205 10210 10216 10222 10229
10494 10488 10482 10475 10468 10460 10453 10444 10435 10427 10418 10409 10401 10393 10386 10378 10370 10362 10354 10347 10340 10333 10324 10314 10303 10294 10286 10278 10268 10257 10247 10237 10229 10221 10214 10208 10202 10197 10192 10187 10179 10170 10164 10160 10156 10153 10149 10146 10142 10139 10137 10135 10133 10131 10130 10129 10128 10127 10127 10127 10128 10129 10130 10132 10133 10135 10138 10141 10144 10147 10150 10154 10158 10162 10166 10171 10176 10182 10188 10193 10198 10203 10210 10217 10224
10488 10482 10475 10468 10460 10452 10444 10436 10427 10418 10410 10402 10394 10385 10377 10369 10360 10352 10344 10336 10329 10323 10315 10307 10297 10287 10277 10267 10259 10249 10239 10229 10220 10212 10204 10199 10193 10188 10183 10179 10172 10163 10157 10152 10149 10145 10141 10137 10134 10132 10130 10127 10125 10124 10123 10122 10121 10120 10120 10120 10121 10123 10124 10125 10126 10128 10131 10134 10137 10140 10143 10147 10150 10154 10159 10164 10169 10174 10180 10184 10189 10195 10202 10210 10217
10482 10475 10468 10461 10453 10445 10436 10427 10419 10410 10402 10394 10386 10378 10369 10361 10352 10344 10336 10328 10320 10312 10304 10296 10289 10281 10272 10262 10253 10244 10234 10224 10215 10205 10195 10188 10182 10176 10171 10167 10163 10156 10150 10145 10141 10138 10134 10129 10126 10124 10123 10120 10118 10117 10116 10115 10114 10114 10113 10114 10115 10116 10117 10118 10119 10122 10124 10127 10130 10133 10137 10140 10144 10147 10152 10156 10161 10166 10171 10176 10181 10187 10194 10202 10209
10475 10468 10461 10453 10445 10437 10428 10420 10411 10403 10395 10387 10379 10371 10362 10353 10344 10336 10327 10318 10309 10301 10292 10285 10277 10271 10265 10257 10248 10239 10230 10221 10212 10203 10192 10182 10174 10168 10161 10157 10153 10148 10142 10137 10133 10130 10126 10122 10119 10117 10115 10113 10111 10110 10109 10108 10108 10107 10107 10107 10108 10109 10111 10112 10113 10115 10118 10120 10123 10126 10129 10133 10137 10141 10145 10149 10154 10159 10163 10168 10173 10179 10185 10193 10201
10467 10460 10453 10445 10437 10429 10421 10413 10405 10397 10389 10380 10372 10363 10354 10345 10336 10327 10318 10309 10300 10291 10282 10274 10266 10258 10251 10245 10239 10232 10225 10217 10208 10200 10191 10182 10172 10164 10156 10150 10144 10140 10135 10130 10125 10122 10119 10115 10112 10110 10108 10106 10104 10103 10102 10101 10101 10101 10101 10101 10102 10103 10104 10106 10107 10109 10112 10114 10117 10120 10123 10126 10130 10134 10138 10142 10147 10152 10156 10161 10165 10170 10176 10183 10191
10460 10453 10446 10439 10431 10423 10415 10407 10399 10390 10381 10373 10363 10354 10346 10337 10328 10318 10310 10301 10292 10283 10273 10264 10255 10247 10239 10232 10225 10218 10212 10205 10197 10190 10182 10174 10166 10157 10149 10142 10137 10132 10127 10122 10118 10115 10111 10107 10105 10103 10101 10099 10098 10097 10095 10095 10094 10094 10095 10095 10096 10097 10098 10100 10101 10103 10105 10108 10110 10113 10116 10120 10123 10127 10131 10135 10140 10145 10149 10153 10158 10163 10169 10175 10182
10454 10447 10440 10432 10424 10416 10408 10400 10391 10382 10373 10364 10355 10346 10337 10328 10319 10310 10302 10294 10285 10275 10265 10255 10246 10236 10227 10219 10210 10202 10195 10189 10182 10175 10168 10161 10155 10148 10140 10134 10129 10124 10119 10115 10111 10108 10104 10101 10098 10096 10095 10093 10091 10090 10089 10088 10088 10088 10088 10089 10090 10090 10092 10093 10095 10097 10099 10102 10104 10107 10110 10113 10117 10121 10125 10129 10133 10138 10142 10147 10151 10156 10162 10167 10173
10448 10441 10434 10426 10418 10410 10401 10393 10383 10374 10365 10355 10346 10338 10329 10320 10312 10303 10294 10286 10277 10267 10258 10248 10238 10228 10218 10209 10200 10191 10183 10176 10169 10162 10156 10150 10144 10138 10132 10126 10121 10116 10112 10108 10105 10101 10098 10095 10092 10090 10088 10087 10085 10084 10083 10082 10082 10082 10082 10083 10083 10084 10086 10087 10089 10091 10093 10096 10098 10100 10103 10107 10111 10114 10118 10123 10127 10131 10135 10140 10145 10150 10155 10160 10165
10442 10435 10427 10419 10411 10402 10394 10385 10375 10366 10357 10348 10339 10330 10322 10313 10305 10295 10286 10277 10268 10259 10250 10241 10231 10221 10211 10202 10193 10184 10176 10169 10161 10154 10148 10142 10136 10130 10125 10119 10114 10110 10105 10101 10098 10095 10092 10088 10086 10084 10082 10081 10079 10078 10077 10076 10076 10076 10077 10077 10078 10079 10080 10082 10083 10085 10087 10089 10092 10094 10097 10101 10105 10108 10112 10116 10120 10124 10128 10133 10138 10143 10148 10153 10157
10436 10428 10420 10411 10403 10394 10385 10376 10368 10358 10349 10341 10332 10323 10315 10305 10296 10287 10278 10269 10260 10251 10242 10233 10224 10214 10204 10196 10188 10179 10171 10164 10156 10148 10141 10135 10129 10123 10118 10113 10108 10103 10099 10095 10092 10088 10085 10082 10080 10078 10076 10075 10073 10072 10071 10070 10070 10070 10071 10072 10072 10073 10074 10076 10077 10079 10081 10083 10086 10088 10091 10094 10098 10101 10105 10109 10113 10117 10122 10126 10130 10135 10140 10145 10150
10428 10420 10412 10403 10395 10387 10378 10370 10361 10352 10343 10334 10325 10316 10307 10298 10289 10279 10270 10261 10252 10243 10234 10224 10215 10205 10196 10188 10180 10172 10164 10157 10149 10141 10134 10128 10123 10117 10111 10107 10102 10097 10093 10089 10086 10083 10080 10076 10074 10072 10070 10069 10067 10066 10066 10065 10065 10065 10066 10066 10067 10068 10069 10070 10071 10073 10075 10077 10079 10082 10085 10088 10091 10094 10098 10102 10106 10110 10115 10119 10123 10128 10133 10138 10142
10421 10413 10404 10396 10389 10380 10372 10364 10355 10346 10337 10328 10319 10309 10300 10291 10281 10272 10263 10253 10244 10235 10226 10217 10207 10198 10189 10180 10172 10164 10156 10149 10142 10134 10127 10121 10116 10111 10105 10101 10096 10092 10088 10084 10080 10077 10074 10071 10068 10066 10065 10063 10062 10061 10061 10060 10059 10060 10060 10061 10062 10062 10063 10064 10066 10067 10069 10071 10074 10076 10079 10082 10085 10088 10091 10095 10099 10103 10108 10112 10117 10121 10125 10130 10135
10413 10406 10398 10390 10383 10375 10366 10358 10349 10340 10330 10321 10311 10302 10293 10283 10274 10264 10255 10245 10236 10227 10218 10209 10200 10191 10182 10173 10164 10156 10148 10141 10134 10128 10121 10115 10109 10104 10099 10094 10090 10086 10082 10078 10075 10072 10068 10065 10063 10061 10060 10058 10057 10056 10056 10055 10054 10054 10055 10055 10056 10057 10058 10059 10060 10062 10064 10066 10068 10070 10073 10076 10078 10081 10085 10088 10092 10096 10100 10105 10109 10114 10118 10123 10127
10407 10400 10392 10384 10376 10368 10360 10351 10342 10333 10323 10314 10304 10295 10286 10276 10267 10257 10247 10238 10228 10219 10210 10202 10193 10184 10175 10166 10157 10149 10141 10134 10127 10120 10113 10107 10102 10097 10092 10088 10084 10080 10076 10073 10069 10066 10063 10060 10057 10055 10054 10053 10052 10051 10050 10050 10050 10049 10050 10050 10051 10052 10053 10054 10055 10056 10058 10060 10062 10064 10067 10069 10072 10075 10078 10082 10085 10089 10093 10097 10102 10106 10110 10114 10119
10401 10394 10386 10378 10370 10362 10353 10345 10336 10327 10317 10308 10298 10288 10279 10269 10259 10249 10240 10230 10221 10212 10203 10194 10186 10177 10169 10160 10151 10142 10134 10127 10120 10114 10107 10101 10096 10092 10087 10082 10078 10074 10071 10067 10064 10061 10058 10055 10052 10050 10048 10047 10046 10046 10045 10045 10045 10044 10044 10045 10045 10046 10047 10048 10049 10051 10053 10054 10057 10059 10061 10063 10066 10069 10072 10075 10079 10082 10086 10090 10094 10098 10102 10106 10110
10395 10387 10379 10371 10363 10355 10347 10338 10330 10320 10310 10300 10290 10281 10272 10262 10252 10243 10233 10224 10215 10205 10196 10187 10179 10171 10163 10154 10146 10137 10129 10121 10114 10108 10102 10096 10090 10086 10082 10076 10072 10068 10065 10062 10059 10056 10053 10050 10047 10045 10043 10042 10041 10040 10040 10040 10039 10039 10039 10040 10040 10041 10042 10043 10044 10045 10047 10049 10051 10053 10055 10058 10060 10063 10066 10070 10073 10076 10079 10083 10087 10090 10094 10098 10102
10388 10381 10372 10364 10357 10349 10341 10332 10323 10313 10303 10293 10283 10274 10264 10255 10246 10237 10228 10218 10209 10199 10190 10180 10172 10164 10156 10147 10139 10131 10123 10116 10109 10103 10097 10091 10085 10080 10076 10071 10066 10062 10059 10056 10053 10050 10048 10045 10042 10040 10038 10037 10036 10036 10035 10035 10034 10034 10034 10035 10035 10036 10036 10037 10039 10040 10041 10043 10045 10047 10049 10052 10054 10057 10060 10063 10066 10069 10072 10076 10079 10083 10087 10091 10094